Sacramento, CA

2:50 PM PDT on September 30, 2016 (GMT -0700)
Sacramento Executive

Weather History for KSAC - November, 2012

Change the Weather History Date:

Thursday, November 29, 2012

  Actual Average Record
Temperature  
Mean Temperature 58 °F -  
Max Temperature 62 °F 58 °F 71 °F (1995)
Min Temperature 54 °F 40 °F 27 °F (2015)
Degree Days  
Heating Degree Days 7    
Cooling Degree Days 0    
Growing Degree Days 8 (Base 50)    
Moisture  
Dew Point 52 °F    
Average Humidity 80    
Maximum Humidity 90    
Minimum Humidity 65    
Precipitation  
Precipitation 0.02 in 0.09 in 1.57 in (1970)
Month to date precipitation 2.06 1.99  
Year to date precipitation 13.09 15.18  
Since 1 July precipitation 3.23  
Sea Level Pressure  
Sea Level Pressure 29.99 in    
Wind  
Wind Speed 9 mph (SSE)    
Max Wind Speed 18 mph    
Max Gust Speed 26 mph    
Visibility 9 miles    
Events Rain    
T = Trace of Precipitation, MM = Missing Value Source: NWS Daily Summary

Daily Weather History Graph

Daily Weather History Graph

Search for Another Location

Airport or City:

Trip Planner

Search our weather history database for the weather conditions in past years. The results will help you decide how hot, cold, wet, or windy it might be!

Date:

Astronomy

Nov. 29, 2012 Rise Set
Actual Time 7:03 AM PST 4:45 PM PST
Civil Twilight 6:33 AM PST 5:14 PM PST
Nautical Twilight 6:01 AM PST 5:47 PM PST
Astronomical Twilight 5:29 AM PST 6:19 PM PST
Moon 5:53 PM PST (11/29) 7:53 AM PST (11/29)
Length of Visible Light 10h 40m
Length of Day
9h 42m
Full, 99% of the Moon is Illuminated
Nov 29
Full
Dec 6
Last Quarter
Dec 13
New
Dec 19
First Quarter
Dec 28
Full

Hourly Weather History & Observations

Time (PST) Temp. Dew Point Humidity Pressure Visibility Wind Dir Wind Speed Gust Speed Precip Events Conditions
12:53 AM 54.0 °F 51.1 °F 90% 30.06 in 6.0 mi SSE 5.8 mph - N/A   Clear
1:53 AM 54.0 °F 51.1 °F 90% 30.07 in 6.0 mi SE 5.8 mph - N/A   Scattered Clouds
2:53 AM 55.0 °F 51.1 °F 86% 30.06 in 10.0 mi SE 5.8 mph - N/A   Overcast
3:53 AM 55.0 °F 51.1 °F 86% 30.05 in 10.0 mi SSE 5.8 mph - N/A   Partly Cloudy
4:53 AM 54.0 °F 50.0 °F 86% 30.04 in 10.0 mi South 4.6 mph - N/A   Partly Cloudy
5:53 AM 54.0 °F 48.9 °F 83% 30.04 in 10.0 mi ESE 6.9 mph - N/A   Clear
6:53 AM 55.0 °F 50.0 °F 83% 30.04 in 10.0 mi SE 8.1 mph - N/A   Clear
7:53 AM 55.9 °F 51.1 °F 84% 30.05 in 10.0 mi SE 8.1 mph - N/A   Partly Cloudy
8:53 AM 57.0 °F 52.0 °F 83% 30.05 in 10.0 mi SSE 8.1 mph - N/A   Mostly Cloudy
9:53 AM 60.1 °F 52.0 °F 75% 30.04 in 10.0 mi SSE 11.5 mph 19.6 mph N/A   Partly Cloudy
10:53 AM 60.1 °F 52.0 °F 75% 30.03 in 10.0 mi SE 15.0 mph 24.2 mph N/A   Clear
11:53 AM 61.0 °F 51.1 °F 70% 30.01 in 10.0 mi SSE 10.4 mph 20.7 mph N/A   Overcast
12:53 PM 62.1 °F 50.0 °F 65% 30.00 in 10.0 mi SSE 11.5 mph 21.9 mph N/A   Overcast
1:53 PM 62.1 °F 50.0 °F 65% 29.98 in 10.0 mi SSE 16.1 mph 25.3 mph N/A   Overcast
2:53 PM 61.0 °F 52.0 °F 72% 29.95 in 8.0 mi SSE 9.2 mph 19.6 mph 0.00 in Rain Light Rain
3:53 PM 60.1 °F 54.0 °F 80% 29.95 in 10.0 mi South 13.8 mph 21.9 mph 0.02 in   Overcast
4:40 PM 60.8 °F 55.4 °F 82% 29.96 in 4.0 mi South 15.0 mph 28.8 mph 0.01 in   Overcast
4:53 PM 60.1 °F 55.9 °F 86% 29.96 in 9.0 mi South 12.7 mph 24.2 mph 0.01 in Rain Light Rain
5:53 PM 61.0 °F 54.0 °F 78% 29.94 in 10.0 mi SSE 9.2 mph 26.5 mph 0.00 in   Overcast
6:53 PM 61.0 °F 55.0 °F 81% 29.93 in 10.0 mi SSE 10.4 mph 20.7 mph 0.01 in Rain Light Rain
7:53 PM 61.0 °F 54.0 °F 78% 29.90 in 10.0 mi SSE 15.0 mph 25.3 mph 0.00 in Rain Light Rain
8:53 PM 61.0 °F 54.0 °F 78% 29.89 in 10.0 mi SSE 12.7 mph 23.0 mph 0.01 in Rain Light Rain
9:53 PM 61.0 °F 54.0 °F 78% 29.88 in 9.0 mi South 11.5 mph 21.9 mph 0.00 in Rain Light Rain
10:53 PM 60.1 °F 55.0 °F 83% 29.89 in 10.0 mi South 12.7 mph 27.6 mph 0.04 in   Overcast
11:53 PM 59.0 °F 55.9 °F 90% 29.88 in 4.0 mi South 9.2 mph 20.7 mph 0.16 in Rain Light Rain